Weather History for Sunlight Mountain, CO

Change the Weather History Date:

Friday, September 27, 2013

  Actual Average (KRIL) Record (KRIL)
Temperature  
Mean Temperature 33 °F 57 °F  
Max Temperature 42 °F 73 °F 89 °F (1963)
Min Temperature 24 °F 41 °F 25 °F (1924)
Degree Days  
Heating Degree Days 32 8  
Month to date heating degree days 111  
Since 1 July heating degree days 118  
Cooling Degree Days 0 0  
Month to date cooling degree days 22  
Year to date cooling degree days 538  
Moisture  
Dew Point 31 °F    
Average Humidity 94    
Maximum Humidity 100    
Minimum Humidity 66    
Precipitation  
Precipitation 0.00 in 0.04 in 0.60 in (1935)
Month to date precipitation 1.36  
Year to date precipitation 10.33  
Sea Level Pressure  
Sea Level Pressure 30.05 in    
Wind  
Wind Speed 1 mph (SSW)    
Max Wind Speed 6 mph    
Max Gust Speed -    
Visibility 4 miles    
Events Fog , Rain , Snow , Thunderstorm    
T = Trace of Precipitation, MM = Missing Value Source: NWS Daily Summary

Daily Weather History Graph

Daily Weather History Graph

Search for Another Location

Airport:

Trip Planner

Search our weather history database for the weather conditions in past years. The results will help you decide how hot, cold, wet, or windy it might be!

Date:

Astronomy

Sep. 27, 2013 Rise Set
Actual Time 7:02 AM MDT 6:57 PM MDT
Civil Twilight 6:35 AM MDT 7:24 PM MDT
Nautical Twilight 6:04 AM MDT 7:55 PM MDT
Astronomical Twilight 5:32 AM MDT 8:27 PM MDT
Moon 12:01 AM MDT (9/27) 2:36 PM MDT (9/27)
Length of Visible Light 12h 49m
Length of Day
11h 55m
Last Quarter, 44% of the Moon is Illuminated
Sep 27
Last Quarter
Oct 4
New
Oct 11
First Quarter
Oct 18
Full
Oct 26
Last Quarter

Hourly Weather History & Observations

Time (MDT) Temp. Windchill Dew Point Humidity Pressure Visibility Wind Dir Wind Speed Gust Speed Precip Events Conditions
12:16 AM 42.8 °F - 32.0 °F 66% 30.02 in 10.0 mi Calm Calm - N/A   Overcast
12:36 AM 42.8 °F 40.1 °F 32.0 °F 66% 30.02 in 10.0 mi SSW 4.6 mph - N/A   Overcast
12:56 AM 41.0 °F - 33.8 °F 76% 30.02 in 10.0 mi Calm Calm - N/A   Overcast
1:16 AM 41.0 °F - 33.8 °F 76% 29.99 in 10.0 mi Calm Calm - N/A   Overcast
1:36 AM 41.0 °F - 33.8 °F 76% 30.00 in 10.0 mi Calm Calm - N/A   Light Drizzle
1:56 AM 39.2 °F 37.0 °F 35.6 °F 87% 30.00 in 7.0 mi South 3.5 mph - N/A Rain Light Rain
2:16 AM 37.4 °F - 37.4 °F 100% 29.97 in 5.0 mi Calm Calm - N/A Rain Light Rain
2:36 AM 37.4 °F - 37.4 °F 100% 29.97 in 5.0 mi Calm Calm - N/A Rain Rain
2:56 AM 37.4 °F - 37.4 °F 100% 29.96 in 7.0 mi Calm Calm - N/A Rain Rain
3:16 AM 37.4 °F - 37.4 °F 100% 29.97 in 10.0 mi Calm Calm - N/A   Drizzle
3:36 AM 37.4 °F - 37.4 °F 100% 29.96 in 2.5 mi Calm Calm - N/A Rain Rain
3:56 AM 37.4 °F 33.8 °F 37.4 °F 100% 29.94 in 2.5 mi SSE 4.6 mph - N/A Rain Light Rain
4:16 AM 37.4 °F - 35.6 °F 93% 29.94 in 2.0 mi Calm Calm - N/A Rain Rain
4:36 AM 35.6 °F - 35.6 °F 100% 29.96 in 1.0 mi Calm Calm - N/A Snow Light Snow
4:56 AM 35.6 °F - 33.8 °F 93% 29.96 in 0.5 mi Calm Calm - N/A Snow Snow
5:16 AM 33.8 °F - 33.8 °F 100% 29.96 in 0.5 mi Calm Calm - N/A Snow Heavy Snow
5:35 AM 33.8 °F - 33.8 °F 100% 29.96 in 0.5 mi Calm Calm - N/A Snow Heavy Snow
5:56 AM 33.8 °F - 33.8 °F 100% 29.96 in 0.5 mi Calm Calm - N/A Snow Heavy Snow
6:16 AM 33.8 °F - 33.8 °F 100% 29.98 in 1.0 mi Calm Calm - N/A Snow Light Snow
6:36 AM 33.8 °F - 33.8 °F 100% 29.99 in 0.5 mi Calm Calm - N/A Snow Heavy Snow
6:56 AM 33.8 °F - 33.8 °F 100% 29.99 in 1.0 mi Calm Calm - N/A Snow Light Snow
7:16 AM 33.8 °F - 32.0 °F 93% 29.99 in 1.5 mi Calm Calm - N/A Snow Light Snow
7:36 AM 33.8 °F - 32.0 °F 93% 29.99 in 1.5 mi Calm Calm - N/A Snow Light Snow
7:56 AM 33.8 °F - 32.0 °F 93% 29.99 in 0.8 mi Calm Calm - N/A Snow Light Snow
8:16 AM 32.0 °F - 32.0 °F 100% 29.99 in 1.2 mi Calm Calm - N/A Snow Light Snow
8:35 AM 33.8 °F - 32.0 °F 93% 29.99 in 1.0 mi Calm Calm - N/A Snow Light Snow
8:55 AM 33.8 °F - 32.0 °F 93% 29.99 in 1.0 mi Calm Calm - N/A Snow Light Snow
9:16 AM 33.8 °F - 32.0 °F 93% 30.00 in 0.5 mi Calm Calm - N/A Snow Light Snow
9:36 AM 33.8 °F - 32.0 °F 93% 30.00 in 0.8 mi Calm Calm - N/A Snow Light Snow
9:56 AM 33.8 °F - 32.0 °F 93% 30.02 in 0.8 mi Calm Calm - N/A Snow Light Snow
10:15 AM 32.0 °F - 32.0 °F 100% 30.00 in 0.5 mi Calm Calm - N/A Snow Light Snow
10:36 AM 33.8 °F 30.8 °F 32.0 °F 93% 30.01 in 1.0 mi South 3.5 mph - N/A Snow Light Snow
10:56 AM 33.8 °F - 32.0 °F 93% 30.00 in 0.8 mi Calm Calm - N/A Snow Light Snow
11:16 AM 33.8 °F 30.8 °F 32.0 °F 93% 30.01 in 2.5 mi SSE 3.5 mph - N/A Snow Light Snow
11:35 AM 33.8 °F - 32.0 °F 93% 30.02 in 1.2 mi Calm Calm - N/A Snow Light Snow
11:55 AM 33.8 °F 30.8 °F 32.0 °F 93% 30.02 in 5.0 mi South 3.5 mph - N/A Thunderstorm Overcast
12:16 PM 33.8 °F 29.6 °F 32.0 °F 93% 30.02 in 5.0 mi South 4.6 mph - N/A   Overcast
12:36 PM 32.0 °F 28.7 °F 32.0 °F 100% 30.02 in 2.5 mi SSW 3.5 mph - N/A Snow , Thunderstorm Light Thunderstorms and Snow
12:56 PM 32.0 °F - 32.0 °F 100% 30.02 in 5.0 mi Calm Calm - N/A   Overcast
1:16 PM 33.8 °F - 32.0 °F 93% 30.02 in 3.0 mi Calm Calm - N/A Snow Light Snow
1:36 PM 32.0 °F - 32.0 °F 100% 30.03 in 0.5 mi Calm Calm - N/A Snow Light Snow
1:56 PM 32.0 °F - 32.0 °F 100% 30.02 in 0.5 mi Calm Calm - N/A Snow Light Snow
2:16 PM 32.0 °F - 32.0 °F 100% 30.03 in 0.5 mi Calm Calm - N/A Snow Light Snow
2:36 PM 33.8 °F - 32.0 °F 93% 30.03 in 1.5 mi Calm Calm - N/A Snow Light Snow
2:56 PM 32.0 °F - 32.0 °F 100% 30.04 in 0.8 mi Calm Calm - N/A Snow Light Snow
3:16 PM 30.2 °F 26.7 °F 30.2 °F 100% 30.04 in 0.2 mi SSW 3.5 mph - N/A Snow Heavy Snow
3:36 PM 32.0 °F - 32.0 °F 100% 30.04 in 0.5 mi Calm Calm - N/A Snow , Thunderstorm Light Thunderstorms and Snow
3:56 PM 32.0 °F - 30.2 °F 93% 30.05 in 0.5 mi Calm Calm - N/A Snow Light Snow
4:16 PM 30.2 °F 26.7 °F 28.4 °F 93% 30.04 in 0.2 mi South 3.5 mph - N/A Snow Snow
4:36 PM 28.4 °F - 28.4 °F 100% 30.07 in 0.5 mi Calm Calm - N/A Snow , Thunderstorm Light Thunderstorms and Snow
4:55 PM 30.2 °F - 28.4 °F 93% 30.06 in 5.0 mi Calm Calm - N/A   Overcast
5:16 PM 28.4 °F - 26.6 °F 93% 30.07 in 10.0 mi Calm Calm - N/A   Mostly Cloudy
5:36 PM 30.2 °F - 28.4 °F 93% 30.11 in 2.5 mi Calm Calm - N/A Snow Light Snow
5:56 PM 30.2 °F - 28.4 °F 93% 30.12 in 1.0 mi Calm Calm - N/A Snow Light Snow
6:15 PM 30.2 °F - 28.4 °F 93% 30.13 in 2.0 mi Calm Calm - N/A   Overcast
6:36 PM 30.2 °F - 28.4 °F 93% 30.14 in 2.0 mi Calm Calm - N/A Snow Light Snow
6:56 PM 30.2 °F - 28.4 °F 93% 30.15 in 10.0 mi Calm Calm - N/A   Overcast
7:16 PM 28.4 °F - 28.4 °F 100% 30.16 in 10.0 mi Calm Calm - N/A Thunderstorm Overcast
7:36 PM 28.4 °F - 28.4 °F 100% 30.16 in 10.0 mi Calm Calm - N/A Thunderstorm Thunderstorm
7:55 PM 28.4 °F - 28.4 °F 100% 30.17 in 10.0 mi Calm Calm - N/A Thunderstorm Thunderstorm
8:16 PM 26.6 °F 20.0 °F 24.8 °F 93% 30.19 in 0.2 mi WNW 5.8 mph - N/A Snow , Thunderstorm Heavy Thunderstorms and Snow
8:36 PM 26.6 °F 20.0 °F 24.8 °F 93% 30.18 in 0.2 mi WSW 5.8 mph - N/A Snow , Thunderstorm Heavy Thunderstorms and Snow
8:56 PM 26.6 °F - 24.8 °F 93% 30.20 in 0.8 mi Calm Calm - N/A Snow Light Snow
9:16 PM 26.6 °F 22.6 °F 24.8 °F 93% 30.20 in 0.5 mi WSW 3.5 mph - N/A Snow Snow
9:35 PM 26.6 °F 22.6 °F 24.8 °F 93% 30.21 in 0.2 mi WSW 3.5 mph - N/A Fog Light Freezing Fog
9:55 PM 26.6 °F - 24.8 °F 93% 30.22 in 0.8 mi Calm Calm - N/A   Overcast
10:16 PM 26.6 °F - 24.8 °F 93% 30.22 in 0.8 mi Calm Calm - N/A   Overcast
10:36 PM 24.8 °F - 23.0 °F 93% 30.23 in 10.0 mi Calm Calm - N/A   Overcast
10:55 PM 24.8 °F - 23.0 °F 93% 30.24 in 10.0 mi Calm Calm - N/A   Overcast
11:16 PM 26.6 °F 22.6 °F 23.0 °F 86% 30.24 in 10.0 mi WSW 3.5 mph - N/A   Overcast
11:35 PM 26.6 °F - 24.8 °F 93% 30.24 in 10.0 mi Calm Calm - N/A   Overcast
11:55 PM 26.6 °F - 23.0 °F 86% 30.25 in 10.0 mi Calm Calm - N/A   Overcast